Location: American Canyon
(38.1966°N, 122.1514°W)
Time: 13:45:17
(UTC+00:00)

Cosmos 1023 Rocket - Pass Details

Date: 29 October 2020
Orbit: 736 x 773 km, 74.1° (Epoch: 01 December)

Event Time Altitude Azimuth Distance (km) Brightness Sun altitude
Rises 13:34:29 0° 200° (SSW) 3,158 7.6 -11.9°
Reaches altitude 10° 13:36:50 10° 201° (SSW) 2,237 6.8 -11.4°
Maximum altitude 13:41:54 80° 288° (WNW) 752 4.4 -10.4°
Drops below altitude 10° 13:46:59 10° 16° (NNE) 2,247 7.0 -9.5°
Sets 13:49:21 0° 18° (NNE) 3,175 7.8 -9.0°
